contact:dominique.lefevre@mio.osupytheas.fr, maurice.libes@osupytheas.fr, didier.mallarino@osupytheas.fr
Project:EMSO http://www.emso-fr.org/EMSO-France
Depth: 2436.0 m
Title:EMSO Ligure Ouest : Data MII capteur MICROCAT
DateTime_Computer,Latitude,Longitude,Temperature,Conductivity,Pressure,DateTime_Instrument
DateTime_Computer,Latitude,Longitude,degC,S m-1,dbar,DateTime_Instrument
2022-03-03T00:01:26Z,42.805,6.029,13.2993,4.60025,2470.343,2022-3-03T02:03:01Z
2022-03-03T00:04:29Z,42.805,6.029,13.3000,4.60029,2470.343,2022-3-03T02:06:04Z
2022-03-03T00:07:33Z,42.805,6.029,13.2996,4.60026,2470.297,2022-3-03T02:09:07Z
2022-03-03T00:10:36Z,42.805,6.029,13.2996,4.60025,2470.343,2022-3-03T02:12:11Z
2022-03-03T00:13:39Z,42.805,6.029,13.2997,4.60030,2470.334,2022-3-03T02:15:14Z
2022-03-03T00:16:42Z,42.805,6.029,13.2996,4.60026,2470.32,2022-3-03T02:18:17Z
2022-03-03T00:19:45Z,42.805,6.029,13.2993,4.60025,2470.357,2022-3-03T02:21:20Z
2022-03-03T00:22:48Z,42.805,6.029,13.2996,4.60024,2470.334,2022-3-03T02:24:23Z
2022-03-03T00:25:51Z,42.805,6.029,13.2994,4.60023,2470.297,2022-3-03T02:27:26Z
2022-03-03T00:28:54Z,42.805,6.029,13.2997,4.60024,2470.32,2022-3-03T02:30:29Z
2022-03-03T00:31:58Z,42.805,6.029,13.2996,4.60025,2470.31,2022-3-03T02:33:32Z
2022-03-03T00:35:01Z,42.805,6.029,13.3000,4.60025,2470.31,2022-3-03T02:36:36Z
2022-03-03T00:38:04Z,42.805,6.029,13.2995,4.60024,2470.31,2022-3-03T02:39:39Z
2022-03-03T00:41:07Z,42.805,6.029,13.2998,4.60025,2470.31,2022-3-03T02:42:42Z
2022-03-03T00:44:10Z,42.805,6.029,13.2999,4.60026,2470.334,2022-3-03T02:45:45Z
2022-03-03T00:47:13Z,42.805,6.029,13.2995,4.60025,2470.31,2022-3-03T02:48:48Z
2022-03-03T00:50:16Z,42.805,6.029,13.2995,4.60035,2470.32,2022-3-03T02:51:51Z
2022-03-03T00:53:19Z,42.805,6.029,13.2998,4.60025,2470.32,2022-3-03T02:54:54Z
2022-03-03T00:56:23Z,42.805,6.029,13.2991,4.60029,2470.297,2022-3-03T02:57:57Z
2022-03-03T00:59:26Z,42.805,6.029,13.2995,4.60026,2470.297,2022-3-03T03:01:00Z
2022-03-03T01:02:29Z,42.805,6.029,13.2997,4.60028,2470.31,2022-3-03T03:04:04Z
2022-03-03T01:05:32Z,42.805,6.029,13.2996,4.60024,2470.287,2022-3-03T03:07:07Z
2022-03-03T01:08:35Z,42.805,6.029,13.2997,4.60026,2470.273,2022-3-03T03:10:10Z
2022-03-03T01:11:38Z,42.805,6.029,13.2995,4.60024,2470.334,2022-3-03T03:13:13Z
2022-03-03T01:14:41Z,42.805,6.029,13.2995,4.60026,2470.297,2022-3-03T03:16:16Z
2022-03-03T01:17:44Z,42.805,6.029,13.2994,4.60026,2470.273,2022-3-03T03:19:19Z
2022-03-03T01:20:47Z,42.805,6.029,13.2993,4.60022,2470.297,2022-3-03T03:22:22Z
2022-03-03T01:23:51Z,42.805,6.029,13.2996,4.60025,2470.287,2022-3-03T03:25:25Z
2022-03-03T01:26:54Z,42.805,6.029,13.2998,4.60023,2470.31,2022-3-03T03:28:29Z
2022-03-03T01:29:57Z,42.805,6.029,13.2996,4.60025,2470.334,2022-3-03T03:31:32Z
2022-03-03T01:33:00Z,42.805,6.029,13.2995,4.60023,2470.273,2022-3-03T03:34:35Z
2022-03-03T01:36:03Z,42.805,6.029,13.2998,4.60024,2470.297,2022-3-03T03:37:38Z
2022-03-03T01:39:06Z,42.805,6.029,13.3000,4.60024,2470.32,2022-3-03T03:40:41Z
2022-03-03T01:42:09Z,42.805,6.029,13.2996,4.60029,2470.273,2022-3-03T03:43:44Z
2022-03-03T01:45:12Z,42.805,6.029,13.2995,4.60023,2470.287,2022-3-03T03:46:47Z
2022-03-03T01:48:16Z,42.805,6.029,13.3000,4.60029,2470.287,2022-3-03T03:49:50Z
2022-03-03T01:51:19Z,42.805,6.029,13.2996,4.60025,2470.297,2022-3-03T03:52:53Z
2022-03-03T01:54:22Z,42.805,6.029,13.2996,4.60021,2470.273,2022-3-03T03:55:57Z
2022-03-03T01:57:25Z,42.805,6.029,13.2998,4.60023,2470.25,2022-3-03T03:59:00Z
2022-03-03T02:00:28Z,42.805,6.029,13.2993,4.60023,2470.297,2022-3-03T04:02:03Z
2022-03-03T02:03:31Z,42.805,6.029,13.2997,4.60030,2470.297,2022-3-03T04:05:06Z
2022-03-03T02:06:34Z,42.805,6.029,13.2997,4.60022,2470.31,2022-3-03T04:08:09Z
2022-03-03T02:09:37Z,42.805,6.029,13.2993,4.60024,2470.273,2022-3-03T04:11:12Z
2022-03-03T02:12:40Z,42.805,6.029,13.2994,4.60024,2470.287,2022-3-03T04:14:15Z
2022-03-03T02:15:44Z,42.805,6.029,13.2995,4.60028,2470.31,2022-3-03T04:17:18Z
2022-03-03T02:18:47Z,42.805,6.029,13.2998,4.60023,2470.31,2022-3-03T04:20:22Z
2022-03-03T02:21:50Z,42.805,6.029,13.2992,4.60024,2470.273,2022-3-03T04:23:25Z
2022-03-03T02:24:53Z,42.805,6.029,13.2993,4.60022,2470.287,2022-3-03T04:26:28Z
2022-03-03T02:27:56Z,42.805,6.029,13.2996,4.60026,2470.287,2022-3-03T04:29:31Z
2022-03-03T02:30:59Z,42.805,6.029,13.2995,4.60025,2470.287,2022-3-03T04:32:34Z
2022-03-03T02:34:02Z,42.805,6.029,13.2999,4.60025,2470.25,2022-3-03T04:35:37Z
2022-03-03T02:37:05Z,42.805,6.029,13.2998,4.60026,2470.287,2022-3-03T04:38:40Z
2022-03-03T02:40:09Z,42.805,6.029,13.3000,4.60025,2470.287,2022-3-03T04:41:43Z
2022-03-03T02:43:12Z,42.805,6.029,13.2994,4.60025,2470.287,2022-3-03T04:44:46Z
2022-03-03T02:46:15Z,42.805,6.029,13.2996,4.60024,2470.31,2022-3-03T04:47:50Z
2022-03-03T02:49:18Z,42.805,6.029,13.2998,4.60023,2470.297,2022-3-03T04:50:53Z
2022-03-03T02:52:21Z,42.805,6.029,13.2995,4.60024,2470.31,2022-3-03T04:53:56Z
2022-03-03T02:55:24Z,42.805,6.029,13.2991,4.60023,2470.297,2022-3-03T04:56:59Z
2022-03-03T02:58:27Z,42.805,6.029,13.2998,4.60024,2470.297,2022-3-03T05:00:02Z
2022-03-03T03:01:30Z,42.805,6.029,13.2997,4.60024,2470.32,2022-3-03T05:03:05Z
2022-03-03T03:04:33Z,42.805,6.029,13.2993,4.60025,2470.334,2022-3-03T05:06:08Z
2022-03-03T03:07:37Z,42.805,6.029,13.2995,4.60023,2470.297,2022-3-03T05:09:11Z
2022-03-03T03:10:40Z,42.805,6.029,13.2995,4.60023,2470.343,2022-3-03T05:12:15Z
2022-03-03T03:13:43Z,42.805,6.029,13.2997,4.60026,2470.32,2022-3-03T05:15:18Z
2022-03-03T03:16:46Z,42.805,6.029,13.2994,4.60024,2470.31,2022-3-03T05:18:21Z
2022-03-03T03:19:49Z,42.805,6.029,13.2995,4.60026,2470.32,2022-3-03T05:21:24Z
2022-03-03T03:22:52Z,42.805,6.029,13.2996,4.60024,2470.31,2022-3-03T05:24:27Z
2022-03-03T03:25:55Z,42.805,6.029,13.3000,4.60024,2470.343,2022-3-03T05:27:30Z
2022-03-03T03:28:58Z,42.805,6.029,13.2996,4.60024,2470.297,2022-3-03T05:30:33Z
2022-03-03T03:32:02Z,42.805,6.029,13.2994,4.60023,2470.32,2022-3-03T05:33:36Z
2022-03-03T03:35:05Z,42.805,6.029,13.2996,4.60026,2470.357,2022-3-03T05:36:39Z
2022-03-03T03:38:08Z,42.805,6.029,13.2997,4.60024,2470.32,2022-3-03T05:39:43Z
2022-03-03T03:41:11Z,42.805,6.029,13.2998,4.60024,2470.32,2022-3-03T05:42:46Z
2022-03-03T03:44:14Z,42.805,6.029,13.2996,4.60029,2470.32,2022-3-03T05:45:49Z
2022-03-03T03:47:17Z,42.805,6.029,13.2993,4.60027,2470.343,2022-3-03T05:48:52Z
2022-03-03T03:50:20Z,42.805,6.029,13.2998,4.60025,2470.343,2022-3-03T05:51:55Z
2022-03-03T03:53:23Z,42.805,6.029,13.2994,4.60028,2470.404,2022-3-03T05:54:58Z
2022-03-03T03:56:26Z,42.805,6.029,13.2998,4.60023,2470.343,2022-3-03T05:58:01Z
2022-03-03T03:59:30Z,42.805,6.029,13.2993,4.60025,2470.357,2022-3-03T06:01:04Z
2022-03-03T04:02:33Z,42.805,6.029,13.3002,4.60023,2470.32,2022-3-03T06:04:08Z
2022-03-03T04:05:36Z,42.805,6.029,13.2998,4.60023,2470.38,2022-3-03T06:07:11Z
2022-03-03T04:08:39Z,42.805,6.029,13.2998,4.60023,2470.39,2022-3-03T06:10:14Z
2022-03-03T04:11:42Z,42.805,6.029,13.2995,4.60025,2470.404,2022-3-03T06:13:17Z
2022-03-03T04:14:45Z,42.805,6.029,13.2997,4.60025,2470.343,2022-3-03T06:16:20Z
2022-03-03T04:17:48Z,42.805,6.029,13.2997,4.60026,2470.39,2022-3-03T06:19:23Z
2022-03-03T04:20:51Z,42.805,6.029,13.2998,4.60023,2470.366,2022-3-03T06:22:26Z
2022-03-03T04:23:54Z,42.805,6.029,13.2998,4.60026,2470.366,2022-3-03T06:25:29Z
2022-03-03T04:26:58Z,42.805,6.029,13.2995,4.60024,2470.404,2022-3-03T06:28:32Z
2022-03-03T04:30:01Z,42.805,6.029,13.3000,4.60023,2470.39,2022-3-03T06:31:36Z
2022-03-03T04:33:04Z,42.805,6.029,13.3002,4.60025,2470.39,2022-3-03T06:34:39Z
2022-03-03T04:36:07Z,42.805,6.029,13.2999,4.60033,2470.399,2022-3-03T06:37:42Z
2022-03-03T04:39:10Z,42.805,6.029,13.2996,4.60026,2470.413,2022-3-03T06:40:45Z
2022-03-03T04:42:13Z,42.805,6.029,13.2994,4.60024,2470.413,2022-3-03T06:43:48Z
2022-03-03T04:45:16Z,42.805,6.029,13.2998,4.60025,2470.413,2022-3-03T06:46:51Z
2022-03-03T04:48:19Z,42.805,6.029,13.2997,4.60025,2470.45,2022-3-03T06:49:54Z
2022-03-03T04:51:23Z,42.805,6.029,13.2996,4.60025,2470.413,2022-3-03T06:52:57Z
2022-03-03T04:54:26Z,42.805,6.029,13.2998,4.60026,2470.427,2022-3-03T06:56:01Z
2022-03-03T04:57:29Z,42.805,6.029,13.2997,4.60025,2470.45,2022-3-03T06:59:04Z
2022-03-03T05:00:32Z,42.805,6.029,13.2997,4.60027,2470.404,2022-3-03T07:02:07Z
2022-03-03T05:03:35Z,42.805,6.029,13.2995,4.60026,2470.46,2022-3-03T07:05:10Z
2022-03-03T05:06:38Z,42.805,6.029,13.2996,4.60024,2470.437,2022-3-03T07:08:13Z
2022-03-03T05:09:41Z,42.805,6.029,13.2995,4.60026,2470.497,2022-3-03T07:11:16Z
2022-03-03T05:12:44Z,42.805,6.029,13.2996,4.60026,2470.46,2022-3-03T07:14:19Z
2022-03-03T05:15:47Z,42.805,6.029,13.2997,4.60025,2470.45,2022-3-03T07:17:22Z
2022-03-03T05:18:51Z,42.805,6.029,13.2997,4.60024,2470.474,2022-3-03T07:20:25Z
2022-03-03T05:21:54Z,42.805,6.029,13.2993,4.60024,2470.474,2022-3-03T07:23:29Z
2022-03-03T05:24:57Z,42.805,6.029,13.2998,4.60029,2470.474,2022-3-03T07:26:32Z
2022-03-03T05:28:00Z,42.805,6.029,13.2996,4.60026,2470.46,2022-3-03T07:29:35Z
2022-03-03T05:31:03Z,42.805,6.029,13.2996,4.60026,2470.46,2022-3-03T07:32:38Z
2022-03-03T05:34:06Z,42.805,6.029,13.2994,4.60026,2470.483,2022-3-03T07:35:41Z
2022-03-03T05:37:09Z,42.805,6.029,13.2995,4.60028,2470.507,2022-3-03T07:38:44Z
2022-03-03T05:40:12Z,42.805,6.029,13.2994,4.60025,2470.497,2022-3-03T07:41:47Z
2022-03-03T05:43:16Z,42.805,6.029,13.2998,4.60026,2470.483,2022-3-03T07:44:50Z
2022-03-03T05:46:19Z,42.805,6.029,13.2993,4.60025,2470.47,2022-3-03T07:47:54Z
2022-03-03T05:49:22Z,42.805,6.029,13.2996,4.60026,2470.483,2022-3-03T07:50:57Z
2022-03-03T05:52:25Z,42.805,6.029,13.2997,4.60026,2470.483,2022-3-03T07:54:00Z
2022-03-03T05:55:28Z,42.805,6.029,13.2993,4.60027,2470.483,2022-3-03T07:57:03Z
2022-03-03T05:58:31Z,42.805,6.029,13.2996,4.60026,2470.52,2022-3-03T08:00:06Z
2022-03-03T06:01:34Z,42.805,6.029,13.2998,4.60028,2470.53,2022-3-03T08:03:09Z
2022-03-03T06:04:37Z,42.805,6.029,13.2992,4.60025,2470.52,2022-3-03T08:06:12Z
2022-03-03T06:07:40Z,42.805,6.029,13.2996,4.60026,2470.53,2022-3-03T08:09:15Z
2022-03-03T06:10:44Z,42.805,6.029,13.2998,4.60027,2470.567,2022-3-03T08:12:18Z
2022-03-03T06:13:47Z,42.805,6.029,13.2993,4.60026,2470.53,2022-3-03T08:15:22Z
2022-03-03T06:16:50Z,42.805,6.029,13.2998,4.60026,2470.553,2022-3-03T08:18:25Z
2022-03-03T06:19:53Z,42.805,6.029,13.2998,4.60024,2470.553,2022-3-03T08:21:28Z
2022-03-03T06:22:56Z,42.805,6.029,13.2995,4.60026,2470.567,2022-3-03T08:24:31Z
2022-03-03T06:25:59Z,42.805,6.029,13.2995,4.60027,2470.539,2022-3-03T08:27:34Z
2022-03-03T06:29:02Z,42.805,6.029,13.2996,4.60026,2470.53,2022-3-03T08:30:37Z
2022-03-03T06:32:05Z,42.805,6.029,13.2996,4.60026,2470.577,2022-3-03T08:33:40Z
2022-03-03T06:35:09Z,42.805,6.029,13.2998,4.60026,2470.52,2022-3-03T08:36:43Z
2022-03-03T06:38:12Z,42.805,6.029,13.2995,4.60025,2470.553,2022-3-03T08:39:47Z
2022-03-03T06:41:15Z,42.805,6.029,13.2996,4.60028,2470.567,2022-3-03T08:42:50Z
2022-03-03T06:44:18Z,42.805,6.029,13.2996,4.60025,2470.591,2022-3-03T08:45:53Z
2022-03-03T06:47:21Z,42.805,6.029,13.2997,4.60027,2470.567,2022-3-03T08:48:56Z
2022-03-03T06:50:24Z,42.805,6.029,13.2994,4.60026,2470.577,2022-3-03T08:51:59Z
2022-03-03T06:53:27Z,42.805,6.029,13.2998,4.60027,2470.553,2022-3-03T08:55:02Z
2022-03-03T06:56:30Z,42.805,6.029,13.2997,4.60026,2470.553,2022-3-03T08:58:05Z
2022-03-03T06:59:33Z,42.805,6.029,13.2996,4.60028,2470.591,2022-3-03T09:01:08Z
2022-03-03T07:02:37Z,42.805,6.029,13.2999,4.60027,2470.6,2022-3-03T09:04:11Z
2022-03-03T07:05:40Z,42.805,6.029,13.2998,4.60026,2470.577,2022-3-03T09:07:15Z
2022-03-03T07:08:43Z,42.805,6.029,13.2996,4.60026,2470.591,2022-3-03T09:10:18Z
2022-03-03T07:11:46Z,42.805,6.029,13.2996,4.60029,2470.591,2022-3-03T09:13:21Z
2022-03-03T07:14:49Z,42.805,6.029,13.3000,4.60028,2470.567,2022-3-03T09:16:24Z
2022-03-03T07:17:52Z,42.805,6.029,13.2999,4.60028,2470.6,2022-3-03T09:19:27Z
2022-03-03T07:20:55Z,42.805,6.029,13.2995,4.60029,2470.614,2022-3-03T09:22:30Z
2022-03-03T07:23:58Z,42.805,6.029,13.3000,4.60029,2470.614,2022-3-03T09:25:33Z
2022-03-03T07:27:02Z,42.805,6.029,13.3002,4.60029,2470.6,2022-3-03T09:28:36Z
2022-03-03T07:30:05Z,42.805,6.029,13.2996,4.60026,2470.6,2022-3-03T09:31:40Z
2022-03-03T07:33:08Z,42.805,6.029,13.2997,4.60026,2470.577,2022-3-03T09:34:43Z
2022-03-03T07:36:11Z,42.805,6.029,13.2997,4.60027,2470.614,2022-3-03T09:37:46Z
2022-03-03T07:39:14Z,42.805,6.029,13.2993,4.60028,2470.577,2022-3-03T09:40:49Z
2022-03-03T07:42:17Z,42.805,6.029,13.2998,4.60027,2470.6,2022-3-03T09:43:52Z
2022-03-03T07:45:20Z,42.805,6.029,13.2998,4.60028,2470.591,2022-3-03T09:46:55Z
2022-03-03T07:48:23Z,42.805,6.029,13.2996,4.60027,2470.614,2022-3-03T09:49:58Z
2022-03-03T07:51:26Z,42.805,6.029,13.3001,4.60027,2470.591,2022-3-03T09:53:01Z
2022-03-03T07:54:30Z,42.805,6.029,13.3001,4.60028,2470.6,2022-3-03T09:56:04Z
2022-03-03T07:57:33Z,42.805,6.029,13.2996,4.60029,2470.637,2022-3-03T09:59:08Z
2022-03-03T08:00:36Z,42.805,6.029,13.2998,4.60026,2470.614,2022-3-03T10:02:11Z
2022-03-03T08:03:39Z,42.805,6.029,13.3000,4.60026,2470.661,2022-3-03T10:05:14Z
2022-03-03T08:06:42Z,42.805,6.029,13.2998,4.60026,2470.614,2022-3-03T10:08:17Z
2022-03-03T08:09:45Z,42.805,6.029,13.2996,4.60024,2470.6,2022-3-03T10:11:20Z
2022-03-03T08:12:48Z,42.805,6.029,13.2997,4.60025,2470.628,2022-3-03T10:14:23Z
2022-03-03T08:15:51Z,42.805,6.029,13.2998,4.60025,2470.6,2022-3-03T10:17:26Z
2022-03-03T08:18:55Z,42.805,6.029,13.3001,4.60026,2470.6,2022-3-03T10:20:29Z
2022-03-03T08:21:58Z,42.805,6.029,13.2996,4.60028,2470.6,2022-3-03T10:23:33Z
2022-03-03T08:25:01Z,42.805,6.029,13.2996,4.60026,2470.6,2022-3-03T10:26:36Z
2022-03-03T08:28:04Z,42.805,6.029,13.2999,4.60029,2470.61,2022-3-03T10:29:39Z
2022-03-03T08:31:07Z,42.805,6.029,13.2997,4.60027,2470.577,2022-3-03T10:32:42Z
2022-03-03T08:34:10Z,42.805,6.029,13.2998,4.60026,2470.624,2022-3-03T10:35:45Z
2022-03-03T08:37:13Z,42.805,6.029,13.3000,4.60025,2470.591,2022-3-03T10:38:48Z
2022-03-03T08:40:16Z,42.805,6.029,13.2996,4.60031,2470.614,2022-3-03T10:41:51Z
2022-03-03T08:43:20Z,42.805,6.029,13.2996,4.60031,2470.577,2022-3-03T10:44:54Z
2022-03-03T08:46:23Z,42.805,6.029,13.2994,4.60026,2470.637,2022-3-03T10:47:58Z
2022-03-03T08:49:26Z,42.805,6.029,13.2997,4.60026,2470.591,2022-3-03T10:51:01Z
2022-03-03T08:52:29Z,42.805,6.029,13.2997,4.60027,2470.6,2022-3-03T10:54:04Z
2022-03-03T08:55:32Z,42.805,6.029,13.3000,4.60033,2470.553,2022-3-03T10:57:07Z
2022-03-03T08:58:35Z,42.805,6.029,13.2996,4.60031,2470.614,2022-3-03T11:00:10Z
2022-03-03T09:01:38Z,42.805,6.029,13.2996,4.60026,2470.6,2022-3-03T11:03:13Z
2022-03-03T09:04:41Z,42.805,6.029,13.2995,4.60029,2470.591,2022-3-03T11:06:16Z
2022-03-03T09:07:45Z,42.805,6.029,13.2995,4.60029,2470.6,2022-3-03T11:09:19Z
2022-03-03T09:10:48Z,42.805,6.029,13.2999,4.60026,2470.6,2022-3-03T11:12:23Z
2022-03-03T09:13:51Z,42.805,6.029,13.2999,4.60024,2470.577,2022-3-03T11:15:26Z
2022-03-03T09:16:54Z,42.805,6.029,13.2997,4.60026,2470.577,2022-3-03T11:18:29Z
2022-03-03T09:19:57Z,42.805,6.029,13.3000,4.60027,2470.614,2022-3-03T11:21:32Z
2022-03-03T09:23:00Z,42.805,6.029,13.2994,4.60032,2470.591,2022-3-03T11:24:35Z
2022-03-03T09:26:03Z,42.805,6.029,13.2994,4.60027,2470.6,2022-3-03T11:27:38Z
2022-03-03T09:29:06Z,42.805,6.029,13.2996,4.60026,2470.591,2022-3-03T11:30:41Z
2022-03-03T09:32:10Z,42.805,6.029,13.2997,4.60026,2470.553,2022-3-03T11:33:44Z
2022-03-03T09:35:13Z,42.805,6.029,13.2994,4.60029,2470.591,2022-3-03T11:36:48Z
2022-03-03T09:38:16Z,42.805,6.029,13.2996,4.60026,2470.577,2022-3-03T11:39:51Z
2022-03-03T09:41:19Z,42.805,6.029,13.2997,4.60029,2470.553,2022-3-03T11:42:54Z
2022-03-03T09:44:22Z,42.805,6.029,13.2995,4.60028,2470.567,2022-3-03T11:45:57Z
2022-03-03T09:47:25Z,42.805,6.029,13.2996,4.60027,2470.53,2022-3-03T11:49:00Z
2022-03-03T09:50:28Z,42.805,6.029,13.2996,4.60026,2470.53,2022-3-03T11:52:03Z
2022-03-03T09:53:31Z,42.805,6.029,13.2996,4.60026,2470.544,2022-3-03T11:55:06Z
2022-03-03T09:56:35Z,42.805,6.029,13.2995,4.60025,2470.577,2022-3-03T11:58:09Z
2022-03-03T09:59:38Z,42.805,6.029,13.2998,4.60026,2470.567,2022-3-03T12:01:13Z
2022-03-03T10:02:41Z,42.805,6.029,13.2997,4.60027,2470.553,2022-3-03T12:04:16Z
2022-03-03T10:05:44Z,42.805,6.029,13.2998,4.60031,2470.53,2022-3-03T12:07:19Z
2022-03-03T10:08:47Z,42.805,6.029,13.2993,4.60026,2470.53,2022-3-03T12:10:22Z
2022-03-03T10:11:50Z,42.805,6.029,13.2993,4.60029,2470.544,2022-3-03T12:13:25Z
2022-03-03T10:14:53Z,42.805,6.029,13.2996,4.60029,2470.553,2022-3-03T12:16:28Z
2022-03-03T10:17:56Z,42.805,6.029,13.2996,4.60026,2470.507,2022-3-03T12:19:31Z
2022-03-03T10:20:59Z,42.805,6.029,13.2993,4.60026,2470.53,2022-3-03T12:22:34Z
2022-03-03T10:24:03Z,42.805,6.029,13.2996,4.60027,2470.553,2022-3-03T12:25:37Z
2022-03-03T10:27:06Z,42.805,6.029,13.2996,4.60027,2470.53,2022-3-03T12:28:41Z
2022-03-03T10:30:09Z,42.805,6.029,13.2996,4.60026,2470.507,2022-3-03T12:31:44Z
2022-03-03T10:33:12Z,42.805,6.029,13.2993,4.60026,2470.507,2022-3-03T12:34:47Z
2022-03-03T10:36:15Z,42.805,6.029,13.2995,4.60029,2470.52,2022-3-03T12:37:50Z
2022-03-03T10:39:18Z,42.805,6.029,13.2996,4.60029,2470.544,2022-3-03T12:40:53Z
2022-03-03T10:42:21Z,42.805,6.029,13.2996,4.60029,2470.507,2022-3-03T12:43:56Z
2022-03-03T10:45:24Z,42.805,6.029,13.2997,4.60028,2470.507,2022-3-03T12:46:59Z
2022-03-03T10:48:28Z,42.805,6.029,13.2996,4.60025,2470.52,2022-3-03T12:50:02Z
2022-03-03T10:51:31Z,42.805,6.029,13.2993,4.60026,2470.507,2022-3-03T12:53:06Z
2022-03-03T10:54:34Z,42.805,6.029,13.2994,4.60026,2470.52,2022-3-03T12:56:09Z
2022-03-03T10:57:37Z,42.805,6.029,13.2996,4.60028,2470.483,2022-3-03T12:59:12Z
2022-03-03T11:00:40Z,42.805,6.029,13.2994,4.60030,2470.507,2022-3-03T13:02:15Z
2022-03-03T11:03:43Z,42.805,6.029,13.2994,4.60026,2470.507,2022-3-03T13:05:18Z
2022-03-03T11:06:46Z,42.805,6.029,13.2995,4.60026,2470.507,2022-3-03T13:08:21Z
2022-03-03T11:09:49Z,42.805,6.029,13.2997,4.60027,2470.53,2022-3-03T13:11:24Z
2022-03-03T11:12:53Z,42.805,6.029,13.2996,4.60026,2470.52,2022-3-03T13:14:27Z
2022-03-03T11:15:56Z,42.805,6.029,13.2996,4.60027,2470.507,2022-3-03T13:17:31Z
2022-03-03T11:18:59Z,42.805,6.029,13.2994,4.60025,2470.497,2022-3-03T13:20:34Z
2022-03-03T11:22:02Z,42.805,6.029,13.2995,4.60026,2470.474,2022-3-03T13:23:37Z
2022-03-03T11:25:05Z,42.805,6.029,13.2995,4.60026,2470.46,2022-3-03T13:26:40Z
2022-03-03T11:28:08Z,42.805,6.029,13.2998,4.60031,2470.483,2022-3-03T13:29:43Z
2022-03-03T11:31:11Z,42.805,6.029,13.2996,4.60026,2470.474,2022-3-03T13:32:46Z
2022-03-03T11:34:14Z,42.805,6.029,13.2995,4.60026,2470.46,2022-3-03T13:35:49Z
2022-03-03T11:37:18Z,42.805,6.029,13.2996,4.60024,2470.474,2022-3-03T13:38:52Z
2022-03-03T11:40:21Z,42.805,6.029,13.2995,4.60029,2470.46,2022-3-03T13:41:56Z
2022-03-03T11:43:24Z,42.805,6.029,13.2994,4.60025,2470.46,2022-3-03T13:44:59Z
2022-03-03T11:46:27Z,42.805,6.029,13.2995,4.60026,2470.413,2022-3-03T13:48:02Z
2022-03-03T11:49:30Z,42.805,6.029,13.2998,4.60029,2470.423,2022-3-03T13:51:05Z
2022-03-03T11:52:33Z,42.805,6.029,13.2991,4.60029,2470.474,2022-3-03T13:54:08Z
2022-03-03T11:55:36Z,42.805,6.029,13.2997,4.60028,2470.46,2022-3-03T13:57:11Z
2022-03-03T11:58:39Z,42.805,6.029,13.2993,4.60026,2470.46,2022-3-03T14:00:14Z
2022-03-03T12:01:43Z,42.805,6.029,13.2998,4.60032,2470.474,2022-3-03T14:03:17Z
2022-03-03T12:04:46Z,42.805,6.029,13.2993,4.60026,2470.427,2022-3-03T14:06:21Z
2022-03-03T12:07:49Z,42.805,6.029,13.2997,4.60026,2470.45,2022-3-03T14:09:24Z
2022-03-03T12:10:52Z,42.805,6.029,13.2996,4.60026,2470.45,2022-3-03T14:12:27Z
2022-03-03T12:13:55Z,42.805,6.029,13.2995,4.60028,2470.437,2022-3-03T14:15:30Z
2022-03-03T12:16:58Z,42.805,6.029,13.2993,4.60027,2470.413,2022-3-03T14:18:33Z
2022-03-03T12:20:01Z,42.805,6.029,13.2993,4.60028,2470.437,2022-3-03T14:21:36Z
2022-03-03T12:23:04Z,42.805,6.029,13.2992,4.60032,2470.437,2022-3-03T14:24:39Z
2022-03-03T12:26:08Z,42.805,6.029,13.2995,4.60024,2470.413,2022-3-03T14:27:42Z
2022-03-03T12:29:11Z,42.805,6.029,13.2998,4.60026,2470.437,2022-3-03T14:30:46Z
2022-03-03T12:32:14Z,42.805,6.029,13.3002,4.60026,2470.427,2022-3-03T14:33:49Z
2022-03-03T12:35:17Z,42.805,6.029,13.2994,4.60027,2470.427,2022-3-03T14:36:52Z
2022-03-03T12:38:20Z,42.805,6.029,13.2996,4.60029,2470.413,2022-3-03T14:39:55Z
2022-03-03T12:41:23Z,42.805,6.029,13.2993,4.60025,2470.427,2022-3-03T14:42:58Z
2022-03-03T12:44:26Z,42.805,6.029,13.2998,4.60026,2470.413,2022-3-03T14:46:01Z
2022-03-03T12:47:29Z,42.805,6.029,13.2998,4.60025,2470.413,2022-3-03T14:49:04Z
2022-03-03T12:50:32Z,42.805,6.029,13.2996,4.60026,2470.39,2022-3-03T14:52:07Z
2022-03-03T12:53:36Z,42.805,6.029,13.2998,4.60026,2470.413,2022-3-03T14:55:10Z
2022-03-03T12:56:39Z,42.805,6.029,13.2997,4.60027,2470.39,2022-3-03T14:58:14Z
2022-03-03T12:59:42Z,42.805,6.029,13.2993,4.60026,2470.39,2022-3-03T15:01:17Z
2022-03-03T13:02:45Z,42.805,6.029,13.2990,4.60024,2470.413,2022-3-03T15:04:20Z
2022-03-03T13:05:48Z,42.805,6.029,13.2994,4.60024,2470.343,2022-3-03T15:07:23Z
2022-03-03T13:08:51Z,42.805,6.029,13.2995,4.60026,2470.39,2022-3-03T15:10:26Z
2022-03-03T13:11:54Z,42.805,6.029,13.2996,4.60026,2470.39,2022-3-03T15:13:29Z
2022-03-03T13:14:57Z,42.805,6.029,13.2996,4.60026,2470.404,2022-3-03T15:16:32Z
2022-03-03T13:18:01Z,42.805,6.029,13.2996,4.60023,2470.343,2022-3-03T15:19:35Z
2022-03-03T13:21:04Z,42.805,6.029,13.2995,4.60027,2470.366,2022-3-03T15:22:39Z
2022-03-03T13:24:07Z,42.805,6.029,13.2995,4.60027,2470.39,2022-3-03T15:25:42Z
2022-03-03T13:27:10Z,42.805,6.029,13.2997,4.60026,2470.343,2022-3-03T15:28:45Z
2022-03-03T13:30:13Z,42.805,6.029,13.2996,4.60025,2470.366,2022-3-03T15:31:48Z
2022-03-03T13:33:16Z,42.805,6.029,13.2995,4.60029,2470.343,2022-3-03T15:34:51Z
2022-03-03T13:36:19Z,42.805,6.029,13.2994,4.60026,2470.357,2022-3-03T15:37:54Z
2022-03-03T13:39:22Z,42.805,6.029,13.2995,4.60027,2470.366,2022-3-03T15:40:57Z
2022-03-03T13:42:26Z,42.805,6.029,13.2998,4.60027,2470.32,2022-3-03T15:44:00Z
2022-03-03T13:45:29Z,42.805,6.029,13.2996,4.60025,2470.357,2022-3-03T15:47:04Z
2022-03-03T13:48:32Z,42.805,6.029,13.2997,4.60026,2470.357,2022-3-03T15:50:07Z
2022-03-03T13:51:35Z,42.805,6.029,13.2996,4.60026,2470.357,2022-3-03T15:53:10Z
2022-03-03T13:54:38Z,42.805,6.029,13.2993,4.60025,2470.343,2022-3-03T15:56:13Z
2022-03-03T13:57:41Z,42.805,6.029,13.2996,4.60025,2470.343,2022-3-03T15:59:16Z
2022-03-03T14:00:44Z,42.805,6.029,13.2998,4.60025,2470.343,2022-3-03T16:02:19Z
2022-03-03T14:03:47Z,42.805,6.029,13.2996,4.60024,2470.32,2022-3-03T16:05:22Z
2022-03-03T14:06:51Z,42.805,6.029,13.2995,4.60024,2470.343,2022-3-03T16:08:25Z
2022-03-03T14:09:54Z,42.805,6.029,13.2998,4.60024,2470.357,2022-3-03T16:11:29Z
2022-03-03T14:12:57Z,42.805,6.029,13.2996,4.60026,2470.343,2022-3-03T16:14:32Z
2022-03-03T14:16:00Z,42.805,6.029,13.2996,4.60024,2470.366,2022-3-03T16:17:35Z
2022-03-03T14:19:03Z,42.805,6.029,13.2994,4.60025,2470.357,2022-3-03T16:20:38Z
2022-03-03T14:22:06Z,42.805,6.029,13.2998,4.60024,2470.32,2022-3-03T16:23:41Z
2022-03-03T14:25:09Z,42.805,6.029,13.2996,4.60026,2470.343,2022-3-03T16:26:44Z
2022-03-03T14:28:12Z,42.805,6.029,13.2993,4.60027,2470.38,2022-3-03T16:29:47Z
2022-03-03T14:31:16Z,42.805,6.029,13.2993,4.60024,2470.38,2022-3-03T16:32:50Z
2022-03-03T14:34:19Z,42.805,6.029,13.2993,4.60024,2470.32,2022-3-03T16:35:54Z
2022-03-03T14:37:22Z,42.805,6.029,13.2994,4.60027,2470.343,2022-3-03T16:38:57Z
2022-03-03T14:40:25Z,42.805,6.029,13.2993,4.60024,2470.32,2022-3-03T16:42:00Z
2022-03-03T14:43:28Z,42.805,6.029,13.2996,4.60028,2470.38,2022-3-03T16:45:03Z
2022-03-03T14:46:31Z,42.805,6.029,13.2997,4.60026,2470.343,2022-3-03T16:48:06Z
2022-03-03T14:49:34Z,42.805,6.029,13.2996,4.60023,2470.334,2022-3-03T16:51:09Z
2022-03-03T14:52:37Z,42.805,6.029,13.2997,4.60024,2470.38,2022-3-03T16:54:12Z
2022-03-03T14:55:41Z,42.805,6.029,13.2992,4.60023,2470.343,2022-3-03T16:57:15Z
2022-03-03T14:58:44Z,42.805,6.029,13.2994,4.60024,2470.32,2022-3-03T17:00:19Z
2022-03-03T15:01:47Z,42.805,6.029,13.2998,4.60025,2470.357,2022-3-03T17:03:22Z
2022-03-03T15:04:50Z,42.805,6.029,13.2993,4.60024,2470.357,2022-3-03T17:06:25Z
2022-03-03T15:07:53Z,42.805,6.029,13.2996,4.60023,2470.32,2022-3-03T17:09:28Z
2022-03-03T15:10:56Z,42.805,6.029,13.2993,4.60024,2470.343,2022-3-03T17:12:31Z
2022-03-03T15:13:59Z,42.805,6.029,13.2994,4.60025,2470.357,2022-3-03T17:15:34Z